EHI
4 5 7 7 6 7 9 11 13 15 17 18 19 17 13 8 5 2 1 0 0 1 0 0 1 0 0 0 0 0 0 0 0 0 0 0 0 0 0 0 0 0 0
4 6 8 7 5 6 8 10 11 13 14 16 17 16 12 8 4 1 0 0 1 1 1 0 1 0 0 0 0 0 0 0 0 0 0 0 0 0 0 0 0 0 0
4 6 7 6 5 5 6 8 9 11 12 13 15 14 11 7 3 1 0 1 2 2 1 0 0 0 0 0 0 0 0 0 0 0 0 0 0 0 0 0 0 0 0
4 4 3 4 6 7 6 7 9 10 10 10 12 13 11 6 2 0 1 2 2 1 0 0 0 0 0 0 0 0 0 0 0 0 0 0 0 0 0 0 0 0 0
4 3 2 2 6 9 9 8 9 10 9 7 8 10 10 6 2 0 1 2 2 1 1 1 0 0 0 0 0 0 0 0 0 0 0 0 0 0 0 0 0 0 0
5 4 4 4 6 9 11 10 10 10 8 6 5 7 8 5 1 0 0 1 2 1 1 0 0 0 0 0 0 0 0 0 0 0 0 0 0 0 0 0 0 0 0
6 5 5 7 8 9 10 11 11 10 8 6 5 5 5 3 1 0 1 1 1 1 0 0 0 0 0 0 0 0 0 0 0 0 0 0 0 0 0 0 0 0 0
7 6 6 7 8 8 10 12 13 11 9 7 6 6 4 3 1 1 1 1 1 0 0 0 0 0 0 0 0 0 0 0 0 0 0 0 0 0 0 0 0 0 0
6 7 7 6 6 6 8 10 12 10 8 6 6 5 4 4 3 2 1 1 0 0 0 0 0 0 0 0 0 0 0 0 0 0 0 0 0 0 0 0 0 0 0
4 4 5 5 6 5 4 6 7 7 6 4 3 3 3 3 2 1 1 1 0 0 0 0 0 0 0 0 0 0 0 0 0 0 0 0 0 0 0 0 0 0 0
2 2 1 3 4 3 1 1 3 3 3 2 1 1 1 1 1 0 0 0 0 0 0 0 0 0 0 0 0 0 0 0 0 0 0 0 0 0 0 0 0 0 0
2 1 0 0 1 1 0 0 1 1 1 1 0 0 0 0 0 0 0 0 0 0 0 0 0 0 0 0 0 0 0 0 0 0 0 0 0 0 0 0 0 0 0
1 0 0 0 0 1 0 0 0 0 0 0 0 0 0 0 0 0 0 0 0 0 0 0 0 0 0 0 0 0 0 0 0 0 0 0 0 0 0 0 0 0 0
0 0 0 0 0 1 1 0 0 0 0 0 0 0 0 0 0 0 0 0 0 0 0 0 0 0 0 0 0 0 0 0 0 0 0 0 0 0 0 0 0 0 0
0 0 0 0 0 1 1 1 0 0 0 0 0 0 0 0 0 0 0 0 0 0 0 0 0 0 0 0 0 0 0 0 0 0 0 0 0 0 0 0 0 0 0
0 0 0 0 0 1 1 1 0 0 0 0 0 0 0 0 0 0 0 0 0 0 0 0 0 0 0 0 0 0 0 0 0 0 0 0 0 0 0 0 0 0 0
0 0 0 0 0 0 0 0 0 0 0 0 0 0 0 0 0 0 0 0 0 0 0 0 0 0 0 0 0 0 0 0 0 0 0 0 0 0 0 0 0 0 0
0 0 0 0 0 0 0 0 0 0 0 0 0 0 0 0 0 0 0 0 0 0 0 0 0 0 0 0 0 0 0 0 0 0 0 0 0 0 0 0 0 0 0
0 0 0 0 0 0 0 0 0 0 0 0 0 0 0 0 0 0 0 0 0 0 0 0 0 0 0 0 0 0 0 0 0 0 0 0 0 0 0 0 0 0 0
0 0 0 0 0 0 0 0 0 0 0 0 0 0 0 0 0 0 0 0 0 0 0 0 0 0 0 0 0 0 0 0 0 0 0 0 0 0 0 0 0 0 0
0 0 0 0 0 0 0 0 0 0 0 0 0 0 0 0 0 0 0 0 0 0 0 0 0 0 0 0 0 0 0 0 0 0 0 0 0 0 0 0 0 0 0
0 0 0 0 0 0 0 0 0 0 0 0 0 0 0 0 0 0 0 0 0 0 0 0 0 0 0 0 0 0 0 0 0 0 0 0 0 0 0 0 0 0 0
0 0 0 0 0 0 0 0 0 0 0 0 0 0 0 0 0 0 0 0 0 0 0 0 0 0 0 0 0 0 0 0 0 0 0 0 0 0 0 0 0 0 0
0 0 0 0 0 0 0 0 0 0 0 0 0 0 0 0 0 0 0 0 0 0 0 0 0 0 0 0 0 0 0 0 0 0 0 0 0 0 0 0 0 0 0
0 0 0 0 0 0 0 0 0 0 0 0 0 0 0 0 0 0 0 0 0 0 0 0 0 0 0 0 0 0 0 0 0 0 0 0 0 0 0 0 0 0 0
0 0 0 0 0 0 0 0 0 0 0 0 0 0 0 0 0 0 0 0 0 0 0 0 0 0 0 0 0 0 0 0 0 0 0 0 0 0 0 0 0 0 0
Wind_Speed
1 2 4 7 10 11 11 10 11 11 12 12 13 13 13 13 13 13 13 12 12 12 12 12 12 12 12 12 12 11 11 12 12 11 10 10 10 11 11 10 9 6 11
2 2 4 6 10 11 11 10 10 10 10 11 12 13 13 13 13 12 12 12 11 11 11 11 12 12 12 12 11 11 11 11 10 10 9 7 8 9 10 9 8 6 10
2 2 4 5 8 9 10 10 10 10 10 10 11 12 12 12 12 12 12 11 11 11 11 11 11 11 11 11 11 11 10 10 9 8 7 4 4 8 8 8 8 9 9
3 2 3 4 6 8 9 9 10 10 10 10 10 11 11 11 12 11 11 11 10 10 10 10 10 10 10 10 10 10 9 9 8 7 4 2 2 6 7 7 7 8 8
3 2 2 4 6 7 7 8 9 9 9 9 10 10 10 11 11 10 10 10 9 9 9 10 10 10 9 9 9 9 8 8 7 5 3 2 2 4 6 6 6 6 7
2 2 2 4 5 6 6 6 7 7 8 8 9 9 10 10 10 10 9 9 9 9 9 10 10 9 9 8 8 7 7 7 6 3 2 2 1 3 5 5 5 5 5
2 2 2 4 5 5 5 5 5 6 6 7 8 8 9 9 9 9 9 9 9 9 9 9 9 9 8 7 7 7 6 6 4 2 2 1 0 3 4 4 4 4 3
3 3 2 4 4 4 3 4 5 4 5 6 7 7 8 8 8 9 9 9 9 9 9 9 9 9 8 7 6 6 6 5 4 2 1 0 1 3 4 3 3 3 3
3 3 3 2 2 2 2 3 3 3 3 4 5 5 5 6 7 8 9 9 9 9 9 8 8 8 8 7 6 6 6 5 3 1 1 1 2 2 3 3 2 2 2
4 3 3 2 2 1 1 1 2 2 2 3 3 4 4 5 6 7 7 8 9 9 8 8 8 8 7 6 6 6 6 5 3 2 1 2 3 3 3 2 2 1 1
4 3 3 2 2 1 1 1 1 1 2 2 2 3 3 2 3 4 5 7 7 8 8 8 7 7 6 5 5 6 5 2 2 2 1 3 4 3 3 3 2 1 1
3 3 2 2 2 1 1 1 0 0 1 1 1 2 1 2 2 3 5 6 6 6 6 7 7 6 5 3 3 4 2 2 2 2 2 4 5 4 4 3 3 2 2
1 2 2 2 2 1 1 0 0 0 0 1 1 2 1 1 2 2 2 2 3 4 3 4 4 3 3 3 2 2 2 2 2 1 2 5 6 5 5 4 4 3 3
1 2 2 2 2 1 0 0 0 0 0 1 1 2 2 1 2 2 2 2 2 2 2 2 2 3 3 3 3 3 3 2 2 2 2 4 6 6 6 5 4 4 4
2 2 2 2 1 1 1 1 0 1 1 1 1 2 2 2 2 2 2 2 2 2 3 3 3 3 3 3 3 4 4 3 3 2 2 4 5 6 6 6 5 5 5
2 2 2 2 1 1 0 1 1 1 1 1 2 2 3 3 3 3 3 3 3 3 3 3 4 3 3 3 3 4 4 3 3 3 2 3 4 5 6 6 6 6 6
1 2 2 2 2 1 1 1 1 1 1 1 2 2 3 3 3 3 3 3 3 3 3 2 3 2 2 3 3 3 3 3 3 3 3 2 2 4 5 6 6 6 6
1 2 3 2 2 2 1 1 1 1 1 1 1 1 3 3 3 3 3 3 3 3 3 3 3 2 2 2 2 3 3 3 4 4 3 2 2 2 3 5 5 5 6
1 2 2 3 2 2 2 2 1 1 1 1 1 1 2 3 4 3 3 3 3 3 3 3 3 3 2 2 2 2 2 3 3 3 3 3 3 2 2 3 3 4 4
2 2 2 3 2 2 2 1 1 1 1 1 1 1 2 3 4 4 3 3 3 3 3 3 3 2 2 2 2 2 2 2 2 3 4 3 2 3 2 1 1 2 3
2 2 2 2 3 2 1 1 1 1 1 1 1 1 2 3 3 3 3 3 3 3 3 4 3 3 2 1 1 1 1 2 3 3 3 3 3 3 2 2 1 1 2
2 2 2 2 2 2 1 1 1 1 1 1 1 1 2 2 3 3 3 3 3 3 3 3 3 2 1 2 2 1 1 2 2 2 2 3 2 1 2 2 2 2 2
2 3 3 3 3 2 2 1 1 1 1 1 1 2 2 2 2 2 3 3 3 3 4 4 4 4 3 2 2 3 2 3 1 1 2 2 2 2 2 2 3 3 3
3 2 3 3 3 3 1 1 1 2 2 2 2 2 2 2 2 2 2 3 3 3 3 3 3 3 3 2 1 1 1 2 2 1 1 1 2 3 3 2 3 4 3
2 2 3 3 3 3 2 2 2 3 2 2 1 1 1 1 1 1 1 2 2 2 3 2 2 3 2 3 2 1 1 1 1 2 2 2 2 2 3 3 3 3 3
2 2 2 3 3 3 2 2 3 3 3 2 1 1 1 1 1 0 1 1 2 2 3 3 3 3 2 2 2 2 2 2 2 2 2 2 3 2 3 3 3 3 3
Wind_Direction
234 218 190 162 155 152 150 147 143 140 138 136 135 134 134 134 133 134 133 132 130 127 123 120 117 113 111 110 106 102 99 94 89 86 81 83 86 86 86 82 76 67 76
196 199 178 165 158 157 155 151 146 144 142 142 141 140 139 139 138 137 137 136 135 132 128 125 121 118 115 112 108 105 101 97 92 87 77 73 84 89 90 90 87 82 79
141 151 153 154 157 155 154 154 153 151 150 149 149 148 147 145 143 142 141 140 138 135 132 129 125 121 118 116 114 110 105 101 96 91 81 66 82 95 94 93 88 83 80
132 127 135 145 149 152 152 155 158 158 157 157 157 155 153 151 150 149 148 147 143 139 137 133 129 124 121 119 118 115 110 104 96 88 75 62 61 95 94 92 86 82 79
112 110 133 132 142 143 146 153 160 163 162 163 162 161 160 158 158 157 155 152 147 143 142 140 135 130 128 126 124 121 115 108 98 86 79 62 42 92 93 92 87 81 78
84 93 125 125 130 137 140 149 156 162 167 169 167 167 166 167 166 162 159 156 152 148 148 147 144 140 136 133 132 127 120 112 102 90 85 65 33 102 98 99 94 87 80
63 71 116 110 121 123 133 141 153 162 164 169 173 177 176 174 172 166 162 160 159 157 156 157 156 151 147 144 143 136 128 119 112 105 98 76 235 117 108 104 99 96 88
66 56 80 98 104 114 123 140 148 156 166 173 177 180 183 180 178 174 170 168 169 169 168 167 166 162 160 157 155 145 135 130 125 123 124 219 237 133 116 112 107 103 89
56 59 51 71 90 92 100 124 143 149 158 173 179 176 180 181 181 181 179 178 178 178 178 177 176 172 170 167 160 148 142 137 131 145 166 227 236 155 132 124 119 104 89
41 44 41 43 56 70 83 96 114 128 137 154 168 171 174 180 183 185 185 185 186 186 185 184 183 178 175 171 159 149 145 136 146 160 182 232 224 180 161 157 156 135 108
25 21 25 31 33 41 59 64 81 136 144 143 160 170 174 178 181 183 186 188 190 191 191 191 187 180 172 170 161 152 141 140 160 175 199 230 218 202 187 191 199 201 221
351 350 8 10 12 17 19 43 59 103 140 141 144 157 160 168 178 181 186 190 193 193 195 196 190 179 165 160 162 151 144 157 166 189 213 226 221 217 205 204 217 229 249
306 332 341 341 346 15 7 23 40 64 114 132 147 150 151 158 170 174 170 181 189 190 191 196 187 171 164 164 165 162 165 169 180 202 219 222 227 230 221 216 226 237 252
330 318 326 331 336 336 350 314 200 117 222 197 193 172 157 167 182 181 181 179 179 182 181 177 172 174 173 177 178 176 179 183 189 198 219 223 229 234 234 229 231 240 250
316 319 319 328 329 320 341 304 275 225 226 223 212 197 181 184 194 195 194 189 188 183 182 181 182 184 186 188 191 186 190 195 197 199 218 223 227 235 241 242 240 248 254
297 306 313 331 322 317 302 268 258 241 238 220 215 214 197 192 195 199 200 195 195 191 189 189 191 190 194 194 199 197 199 200 203 203 208 221 223 232 242 247 250 256 263
303 315 319 330 351 337 299 278 271 258 251 239 231 218 209 201 193 195 201 201 200 191 185 182 187 186 194 199 207 209 205 206 203 207 206 213 225 233 240 248 256 259 265
328 331 322 334 349 331 307 275 267 264 251 246 242 231 220 212 202 192 195 203 197 186 182 183 185 190 200 204 215 219 212 206 208 206 204 208 213 227 237 244 258 263 267
314 316 317 320 322 313 304 292 277 269 254 250 240 243 240 221 207 199 199 197 188 182 186 189 185 187 197 207 219 225 219 213 211 204 205 207 208 210 220 238 254 267 276
312 315 316 321 320 314 314 320 313 307 284 260 236 233 249 233 213 203 201 194 184 180 187 189 180 183 193 198 215 233 235 228 214 211 212 211 209 211 214 227 242 269 282
323 336 327 325 319 333 337 316 298 288 288 285 264 244 239 235 217 201 200 193 186 188 193 186 175 177 195 171 162 251 270 235 223 222 216 211 213 212 207 212 220 251 281
302 317 320 317 310 308 286 264 250 261 264 258 275 272 253 243 223 205 194 193 190 186 184 182 170 171 178 166 157 153 256 276 246 233 226 218 219 208 210 225 226 239 257
280 296 300 301 300 298 298 321 345 340 324 314 297 287 278 254 229 207 199 193 190 186 187 187 179 179 181 189 183 169 181 222 260 261 230 220 215 217 229 228 230 240 251
260 275 287 290 294 292 284 244 235 240 247 251 259 265 280 266 244 214 191 180 180 182 182 189 183 181 171 188 197 204 194 164 178 256 270 239 228 230 237 252 250 247 248
259 271 282 288 288 285 271 234 232 245 251 260 265 275 276 274 262 225 182 173 177 175 174 178 177 178 181 187 185 176 177 185 191 193 251 261 266 248 244 246 241 240 248
267 272 283 286 281 280 271 251 230 232 238 246 255 261 266 250 241 223 173 170 181 176 175 179 184 178 186 185 189 190 185 180 188 196 228 248 259 257 261 250 238 237 244